EW3643 Weather Reports


time (UTC)temp
C
wind
direction
speed
KPH
gust
KPH
rain 1hr
cm
rain 24hr
cm
rain mn
cm
humidity
%
barometer
mb
20260510153830 23 229 9.7 20.9 0.00 0.00 0.00 60 1014.3
20260510152830 23 245 11.3 17.7 0.00 0.00 0.00 62 1014.5
20260510152332 23 253 12.9 19.3 0.00 0.00 0.00 60 1014.5
20260510151830 23 265 14.5 22.5 0.00 0.00 0.00 60 1014.4
20260510151330 23 254 14.5 22.5 0.00 0.00 0.00 61 1014.4
20260510150830 23 276 11.3 22.5 0.00 0.00 0.00 62 1014.4
20260510150330 22 272 9.7 19.3 0.00 0.00 0.00 64 1014.2
20260510145830 22 253 9.7 19.3 0.00 0.00 0.00 62 1014.2
20260510145331 22 261 8.0 19.3 0.00 0.00 0.00 64 1014.1
20260510144830 22 281 6.4 19.3 0.00 0.00 0.00 64 1014.0
20260510144330 21 222 4.8 11.3 0.00 0.00 0.00 71 1014.0
20260510143832 21 208 4.8 9.7 0.00 0.00 0.00 73 1014.3
20260510143329 20 205 4.8 9.7 0.00 0.00 0.00 72 1014.2
20260510142830 20 202 4.8 11.3 0.00 0.00 0.00 75 1014.2
20260510142330 20 228 3.2 11.3 0.00 0.00 0.00 75 1014.1
20260510141830 20 229 4.8 9.7 0.00 0.00 0.00 77 1014.2
20260510141330 20 184 6.4 11.3 0.00 0.00 0.00 76 1014.3
20260510140331 19 191 4.8 11.3 0.00 0.00 0.00 76 1014.3
20260510135829 19 182 3.2 11.3 0.00 0.00 0.00 78 1014.2
20260510135332 18 211 3.2 9.7 0.00 0.00 0.00 79 1014.2
20260510134832 18 223 3.2 8.0 0.00 0.00 0.00 79 1014.3
20260510134330 18 229 3.2 8.0 0.00 0.00 0.00 82 1014.3
20260510133830 17 188 3.2 8.0 0.00 0.00 0.00 81 1014.1
20260510132830 17 85 1.6 6.4 0.00 0.00 0.00 85 1014.1
20260510132330 17 133 1.6 4.8 0.00 0.00 0.00 86 1014.2
20260510131831 16 134 1.6 4.8 0.00 0.00 0.00 86 1014.3
20260510131330 16 129 1.6 4.8 0.00 0.00 0.00 86 1014.1
20260510130830 16 108 3.2 8.0 0.00 0.00 0.00 87 1014.1
20260510130330 16 184 1.6 8.0 0.00 0.00 0.00 87 1014.1
20260510125831 16 216 1.6 6.4 0.00 0.00 0.00 88 1014.3
20260510125331 15 199 1.6 4.8 0.00 0.00 0.00 88 1014.5
20260510124832 15 199 1.6 4.8 0.00 0.00 0.00 89 1014.3
20260510124330 15 204 1.6 4.8 0.00 0.00 0.00 89 1014.1
20260510123831 15 204 1.6 4.8 0.00 0.00 0.00 90 1014.2
20260510123332 14 204 1.6 4.8 0.00 0.00 0.00 91 1014.2
20260510122829 14 205 3.2 4.8 0.00 0.00 0.00 91 1014.1
20260510122332 13 205 1.6 4.8 0.00 0.00 0.00 91 1014.1
20260510121830 13 148 1.6 4.8 0.00 0.00 0.00 92 1014.0
20260510121333 13 121 0.0 3.2 0.00 0.00 0.00 92 1013.9
20260510120830 13 121 0.0 1.6 0.00 0.00 0.00 93 1013.9
20260510120330 13 121 0.0 1.6 0.00 0.00 0.00 93 1013.8
20260510115832 13 121 0.0 3.2 0.00 0.00 0.00 94 1013.7
20260510114830 12 120 1.6 4.8 0.00 0.00 0.00 94 1013.4
20260510113831 12 96 0.0 1.6 0.00 0.00 0.00 94 1013.3
20260510113321 12 96 0.0 3.2 0.00 0.00 0.00 94 1013.2
20260510112816 11 96 0.0 3.2 0.00 0.00 0.00 94 1013.0
20260510112316 11 96 0.0 1.6 0.00 0.00 0.00 94 1013.1
20260510111813 11 96 0.0 1.6 0.00 0.00 0.00 94 1013.2
20260510111308 11 96 0.0 0.0 0.00 0.00 0.00 94 1013.1
20260510110807 11 96 0.0 0.0 0.00 0.00 0.00 95 1013.0
20260510110307 10 96 0.0 0.0 0.00 0.00 0.00 94 1013.1
20260510105306 10 96 0.0 0.0 0.00 0.00 0.00 94 1012.8
20260510103804 10 96 0.0 0.0 0.00 0.00 0.00 94 1012.6
20260510102737 10 96 0.0 0.0 0.00 0.00 0.00 94 1012.6
20260510102233 10 96 0.0 0.0 0.00 0.00 0.00 94 1012.6
20260510101730 10 96 0.0 0.0 0.00 0.00 0.00 94 1012.3
20260510100730 10 96 0.0 0.0 0.00 0.00 0.00 94 1012.0
20260510100228 10 96 0.0 0.0 0.00 0.00 0.00 94 1012.0
20260510095727 10 96 0.0 0.0 0.00 0.00 0.00 94 1012.0
20260510095208 10 96 0.0 0.0 0.00 0.00 0.00 94 1012.1
20260510094709 10 96 0.0 0.0 0.00 0.00 0.00 94 1012.0
20260510094207 9 96 0.0 0.0 0.00 0.00 0.00 94 1012.0
20260510093709 9 96 0.0 0.0 0.00 0.00 0.00 94 1012.1
20260510092704 10 96 0.0 0.0 0.00 0.00 0.00 94 1012.0
20260510092204 10 96 0.0 0.0 0.00 0.00 0.00 94 1011.9
20260510091702 10 96 0.0 0.0 0.00 0.00 0.00 94 1011.9
20260510091202 10 96 0.0 0.0 0.00 0.00 0.00 94 1011.8
20260510090704 10 96 0.0 1.6 0.00 0.00 0.00 94 1012.0
20260510090202 10 96 1.6 4.8 0.00 0.00 0.00 94 1011.7
20260510085158 10 96 1.6 4.8 0.00 0.00 0.00 94 1011.9
20260510084142 10 104 1.6 6.4 0.00 0.00 0.00 94 1012.3
20260510083638 10 210 1.6 6.4 0.00 0.00 0.00 94 1012.1
20260510083143 9 60 1.6 11.3 0.00 0.00 0.00 94 1012.1
20260510082641 8 117 1.6 11.3 0.00 0.00 0.00 94 1012.0
20260510082137 8 87 0.0 0.0 0.00 0.00 0.00 94 1011.5
20260510081632 8 87 0.0 0.0 0.00 0.00 0.00 94 1011.3
20260510081132 8 87 0.0 0.0 0.00 0.00 0.00 93 1011.4
20260510080630 8 87 0.0 0.0 0.00 0.00 0.00 94 1011.2
20260510080128 8 87 0.0 0.0 0.00 0.00 0.00 94 1011.4
20260510075620 9 87 0.0 0.0 0.00 0.00 0.00 94 1011.2
20260510075119 9 87 0.0 0.0 0.00 0.00 0.00 94 1011.3
20260510074615 9 87 0.0 0.0 0.00 0.00 0.00 94 1011.3
20260510074109 8 87 0.0 0.0 0.00 0.00 0.00 94 1011.2
20260510073611 8 87 0.0 0.0 0.00 0.00 0.00 94 1011.1
20260510073109 8 87 0.0 0.0 0.00 0.00 0.00 94 1011.1
20260510072606 9 87 0.0 0.0 0.00 0.00 0.00 94 1011.2
20260510072103 9 87 0.0 0.0 0.00 0.00 0.00 94 1011.2
20260510071604 8 87 0.0 0.0 0.00 0.00 0.00 93 1011.1
20260510071103 8 87 0.0 0.0 0.00 0.00 0.00 93 1011.1
20260510065604 9 87 0.0 0.0 0.00 0.00 0.00 94 1010.8
20260510064605 8 87 0.0 0.0 0.00 0.00 0.00 93 1010.7
20260510064102 8 87 0.0 0.0 0.00 0.00 0.00 93 1010.7
20260510063602 8 87 0.0 0.0 0.00 0.00 0.00 93 1010.7
20260510063102 9 87 0.0 0.0 0.00 0.00 0.00 93 1010.8
20260510062602 9 87 0.0 0.0 0.00 0.00 0.00 93 1010.9
20260510062102 9 87 0.0 0.0 0.00 0.00 0.00 93 1010.9
20260510061601 9 87 0.0 0.0 0.00 0.00 0.00 93 1011.0
20260510061103 9 87 0.0 0.0 0.00 0.00 0.00 93 1010.9
20260510060602 9 87 0.0 0.0 0.00 0.00 0.00 93 1010.9
20260510055102 9 87 0.0 0.0 0.00 0.00 0.00 93 1010.9
20260510054106 9 87 0.0 0.0 0.00 0.00 0.00 93 1011.0
20260510053604 9 87 0.0 0.0 0.00 0.00 0.00 93 1011.1
20260510053103 9 87 0.0 0.0 0.00 0.00 0.00 93 1011.2
20260510052604 9 87 0.0 0.0 0.00 0.00 0.00 93 1011.1
20260510052102 9 87 0.0 0.0 0.00 0.00 0.00 93 1011.3
20260510051603 9 87 0.0 0.0 0.00 0.00 0.00 93 1011.3
20260510051102 9 87 0.0 0.0 0.00 0.00 0.00 93 1011.3
20260510050604 9 87 0.0 0.0 0.00 0.00 0.00 93 1011.4
20260510045602 9 87 0.0 0.0 0.00 0.00 0.00 93 1011.4
20260510045104 9 87 0.0 0.0 0.00 0.00 0.00 93 1011.5
20260510044604 9 87 0.0 0.0 0.00 0.00 0.00 93 1011.5
20260510044105 9 87 0.0 0.0 0.00 0.00 0.00 93 1011.5
20260510043052 10 87 0.0 0.0 0.00 0.00 0.00 93 1011.4
20260510042546 9 87 0.0 0.0 0.00 0.00 0.00 93 1011.5
20260510042041 9 87 0.0 0.0 0.00 0.00 0.00 93 1011.4
20260510041533 10 87 0.0 0.0 0.00 0.00 0.00 93 1011.4
20260510040525 10 87 0.0 0.0 0.00 0.00 0.00 93 1011.5
20260510040033 10 87 0.0 0.0 0.00 0.00 0.00 93 1011.5
20260510035005 10 87 0.0 0.0 0.00 0.00 0.00 93 1011.5
20260510034504 10 87 0.0 0.0 0.00 0.00 0.00 93 1011.4
20260510034006 10 87 0.0 0.0 0.00 0.00 0.00 93 1011.4
20260510033504 10 87 0.0 0.0 0.00 0.00 0.00 93 1011.4
20260510032502 10 87 0.0 0.0 0.00 0.00 0.00 93 1011.3
20260510032004 10 87 0.0 0.0 0.00 0.00 0.00 93 1011.4
20260510031503 10 87 0.0 0.0 0.00 0.00 0.00 93 1011.4
20260510031002 10 87 0.0 0.0 0.00 0.00 0.00 92 1011.3
20260510030503 10 87 0.0 0.0 0.00 0.00 0.00 92 1011.3
20260510030004 10 87 0.0 0.0 0.00 0.00 0.00 92 1011.1
20260510025441 10 87 0.0 0.0 0.00 0.00 0.00 92 1011.1
20260510024934 10 87 0.0 0.0 0.00 0.00 0.00 93 1011.0
20260510024433 10 87 0.0 0.0 0.00 0.00 0.00 92 1011.1
20260510023935 10 87 0.0 0.0 0.00 0.00 0.00 92 1011.1
20260510023424 10 87 0.0 0.0 0.00 0.00 0.00 92 1011.0
20260510022924 10 87 0.0 0.0 0.00 0.00 0.00 92 1011.0
20260510022424 10 87 0.0 0.0 0.00 0.00 0.00 92 1011.1
20260510021909 11 87 0.0 0.0 0.00 0.00 0.00 92 1011.4
20260510020418 11 87 0.0 0.0 0.00 0.00 0.00 92 1011.0
20260510015912 11 87 0.0 0.0 0.00 0.00 0.00 92 1010.8
20260510015411 11 87 0.0 0.0 0.00 0.00 0.00 92 1010.7
20260510014405 11 87 0.0 0.0 0.00 0.00 0.00 91 1010.6
20260510013405 11 87 0.0 0.0 0.00 0.00 0.00 91 1010.6
20260510012906 11 87 0.0 0.0 0.00 0.00 0.00 91 1010.8
20260510012405 11 87 0.0 0.0 0.00 0.00 0.00 91 1010.7
20260510011918 11 87 0.0 0.0 0.00 0.00 0.00 91 1010.9
20260510011405 12 87 0.0 0.0 0.00 0.00 0.00 91 1010.6
20260510010906 12 87 0.0 0.0 0.00 0.00 0.00 91 1010.6
20260510010406 12 87 0.0 0.0 0.00 0.00 0.00 90 1010.5
20260510005904 12 87 0.0 0.0 0.00 0.00 0.00 90 1010.5
20260510004905 12 87 0.0 0.0 0.00 0.00 0.00 90 1010.6
20260510004403 12 87 0.0 0.0 0.00 0.00 0.00 90 1010.4
20260510003405 13 87 0.0 0.0 0.00 0.00 0.00 89 1010.4
20260510002906 13 87 0.0 0.0 0.00 0.00 0.00 88 1010.5
20260510002405 13 87 0.0 0.0 0.00 0.00 0.00 88 1010.4
20260510001903 13 87 0.0 0.0 0.00 0.00 0.00 87 1010.6
20260510000917 13 87 0.0 1.6 0.00 0.00 0.00 87 1010.4
20260510000404 14 87 1.6 1.6 0.00 0.00 0.00 86 1010.4
20260509235403 14 87 0.0 1.6 0.00 0.00 0.00 85 1010.4
20260509234905 15 87 0.0 3.2 0.00 0.00 0.00 85 1010.5
20260509234404 15 87 1.6 3.2 0.00 0.00 0.00 84 1010.4
20260509233904 15 87 1.6 3.2 0.00 0.00 0.00 84 1010.5
20260509233404 15 87 1.6 4.8 0.00 0.00 0.00 84 1010.4
20260509232903 15 87 1.6 4.8 0.00 0.00 0.00 83 1010.4
20260509232404 15 87 1.6 4.8 0.00 0.00 0.00 83 1010.4
20260509231405 15 67 1.6 6.4 0.00 0.00 0.00 83 1010.3
20260509230904 15 82 3.2 9.7 0.00 0.00 0.00 82 1010.3
20260509225904 16 92 1.6 6.4 0.00 0.00 0.00 82 1010.3
20260509224903 16 88 1.6 4.8 0.00 0.00 0.00 82 1010.2
20260509224404 16 92 1.6 6.4 0.00 0.00 0.00 82 1010.2
20260509223905 16 93 1.6 6.4 0.00 0.00 0.00 81 1010.2
20260509223404 16 94 1.6 4.8 0.00 0.00 0.00 80 1010.2
20260509222903 16 94 1.6 4.8 0.00 0.00 0.00 80 1010.3
20260509222403 16 93 1.6 9.7 0.00 0.00 0.00 81 1010.3
20260509221902 16 94 3.2 9.7 0.00 0.00 0.00 80 1010.6
20260509221405 16 92 1.6 8.0 0.00 0.00 0.00 79 1010.4
20260509220904 16 94 0.0 1.6 0.00 0.00 0.00 80 1010.4
20260509215904 16 94 0.0 3.2 0.00 0.00 0.00 81 1010.2
20260509215403 16 94 0.0 1.6 0.00 0.00 0.00 82 1010.3
20260509214904 16 94 1.6 6.4 0.00 0.00 0.00 82 1010.3
20260509214403 16 94 1.6 6.4 0.00 0.00 0.00 81 1010.2
20260509213903 16 104 0.0 3.2 0.00 0.00 0.00 81 1010.3
20260509213403 16 148 0.0 1.6 0.00 0.00 0.00 80 1010.3
20260509210905 16 148 1.6 3.2 0.00 0.00 0.00 80 1010.2
20260509210404 16 148 1.6 4.8 0.00 0.00 0.00 80 1010.1
20260509205405 16 102 0.0 0.0 0.00 0.00 0.00 79 1010.1
20260509204905 16 102 0.0 0.0 0.00 0.00 0.00 79 1010.2
20260509204404 16 102 0.0 0.0 0.00 0.00 0.00 78 1010.2
20260509203908 16 102 0.0 0.0 0.00 0.00 0.00 79 1010.2
20260509203412 16 102 0.0 1.6 0.00 0.00 0.00 79 1010.2
20260509202856 16 102 0.0 3.2 0.00 0.00 0.00 78 1010.3
20260509201901 16 102 1.6 4.8 0.00 0.00 0.00 77 1010.5
20260509201400 16 94 1.6 4.8 0.00 0.00 0.00 76 1010.3
20260509200850 16 88 1.6 6.4 0.00 0.00 0.00 77 1010.3
20260509200355 17 88 3.2 6.4 0.00 0.00 0.00 77 1010.3
20260509195847 17 114 3.2 9.7 0.00 0.00 0.00 76 1010.4
20260509194846 17 179 3.2 11.3 0.00 0.00 0.00 76 1010.4
20260509194342 17 105 1.6 6.4 0.00 0.00 0.00 77 1010.3
20260509193842 16 101 3.2 9.7 0.00 0.00 0.00 78 1010.2
20260509193342 16 97 1.6 9.7 0.00 0.00 0.00 77 1010.3
20260509192843 16 194 1.6 4.8 0.00 0.00 0.00 79 1010.2
20260509192342 16 62 1.6 6.4 0.00 0.00 0.00 79 1010.3
20260509191836 16 49 1.6 8.0 0.00 0.00 0.00 78 1010.5
20260509191332 16 180 3.2 9.7 0.00 0.00 0.00 77 1010.7
20260509190835 17 309 1.6 9.7 0.00 0.00 0.00 77 1010.8
20260509190335 16 288 1.6 8.0 0.00 0.00 0.00 78 1011.0
20260509185832 16 249 1.6 6.4 0.00 0.00 0.00 78 1011.0
20260509185331 16 282 1.6 6.4 0.00 0.00 0.00 79 1011.1
20260509184835 16 261 1.6 6.4 0.00 0.00 0.00 79 1011.3
20260509184325 16 269 1.6 6.4 0.00 0.00 0.00 78 1011.3
20260509183826 16 152 1.6 6.4 0.00 0.00 0.00 78 1011.5
20260509182826 16 192 0.0 4.8 0.00 0.00 0.00 81 1011.5
20260509182325 16 192 1.6 4.8 0.00 0.00 0.00 78 1011.6
20260509180811 16 156 1.6 4.8 0.00 0.00 0.00 76 1011.6
20260509180324 16 156 1.6 4.8 0.00 0.00 0.00 75 1011.6
20260509175311 17 77 3.2 9.7 0.00 0.00 0.00 75 1011.7
20260509174810 16 285 3.2 14.5 0.00 0.00 0.00 78 1011.7
20260509174311 16 271 4.8 14.5 0.00 0.00 0.00 76 1011.8
20260509173805 16 283 3.2 12.9 0.00 0.00 0.00 77 1011.8
20260509173304 16 337 1.6 9.7 0.00 0.00 0.00 78 1011.6
20260509172804 16 279 3.2 9.7 0.00 0.00 0.00 78 1011.6
20260509172306 16 281 4.8 11.3 0.00 0.00 0.00 77 1011.7
20260509171804 16 275 6.4 12.9 0.00 0.00 0.00 77 1011.8
20260509171303 16 260 6.4 12.9 0.00 0.00 0.00 77 1011.8
20260509170803 16 278 4.8 9.7 0.00 0.00 0.00 78 1011.8
20260509165803 16 279 3.2 9.7 0.00 0.00 0.00 78 1011.7
20260509165306 16 279 1.6 6.4 0.00 0.00 0.00 79 1011.7
20260509164804 16 279 3.2 9.7 0.00 0.00 0.00 78 1011.7
20260509164304 16 277 4.8 11.3 0.00 0.00 0.00 76 1011.7
20260509163803 16 277 8.0 12.9 0.00 0.00 0.00 72 1011.9
20260509161303 16 279 1.6 6.4 0.00 0.00 0.00 82 1011.8
20260509160804 16 9 0.0 3.2 0.00 0.00 0.00 84 1012.0
20260509160305 15 11 0.0 0.0 0.00 0.00 0.00 85 1012.0
20260509155753 15 11 0.0 1.6 0.00 0.00 0.00 86 1012.2
20260509155254 15 11 1.6 4.8 0.00 0.00 0.00 84 1012.2
20260509154738 16 262 3.2 6.4 0.00 0.00 0.00 81 1012.3
20260509154233 16 258 4.8 11.3 0.00 0.00 0.00 80 1012.5